Location: Bouhet
(46.1654°N, 0.8582°W)
Time: 19:35:08
(UTC+00:00)

Daily predictions for brighter satellites

Satellite Brightness Start Highest point End
(mag) Time Altitude Azimuth Time Altitude Azimuth Time Altitude Azimuth
Meteor 1-12 Rocket 4.3 18:07:20 10° S 18:13:09 86° E 18:18:55 10° NNE
Cosmos 2285 Rocket 4.1 18:07:22 10° S 18:13:33 62° ESE 18:19:51 10° NNE
KORONAS-FOTON 4.3 18:10:11 10° N 18:13:54 40° ENE 18:17:34 10° SSE
Cosmos 1300 Rocket 3.6 18:11:44 10° S 18:16:10 89° W 18:20:39 10° N
Cosmos 1025 Rocket 3.1 18:12:19 10° N 18:16:46 90° SW 18:21:10 10° S
ISS -2.5 18:14:40 10° WNW 18:17:44 32° N 18:20:50 10° ENE
Okean O Rocket 4.3 18:16:07 10° SSW 18:19:50 26° W 18:23:34 10° NW
Cosmos 1805 3.9 18:16:40 10° SSE 18:20:13 34° E 18:23:48 10° NNE
TSX-5 4.1 18:16:32 10° SSW 18:20:30 63° ESE 18:25:38 10° NE
Cosmos 2278 Rocket 3.0 18:17:51 10° SSE 18:22:38 29° ESE 18:27:26 10° NE
Cosmos 1707 4.0 18:20:40 10° NNW 18:24:21 45° W 18:28:00 10° SSW
Cosmos 1125 Rocket 3.8 18:23:33 10° SSW 18:28:51 76° WNW 18:34:12 10° NNE
Cosmos 1844 4.1 18:23:53 10° SW 18:29:31 68° WNW 18:35:09 10° NNE
Cosmos 1833 Rocket 3.2 18:25:09 10° NNW 18:30:31 42° NE 18:35:51 10° SE
CSL-04 Rocket 3.9 18:25:42 10° SE 18:30:59 51° ENE 18:36:21 10° N
HJ-1C 4.2 18:28:03 10° SE 18:30:59 31° ENE 18:33:58 10° N
Okean 1 Rocket 3.4 18:27:04 10° SSE 18:31:20 45° E 18:35:37 10° NNE
Nadezhda 4 Rocket 3.9 18:25:47 10° N 18:31:56 77° E 18:38:06 10° SSE
Cosmos 1340 Rocket 3.7 18:32:57 10° SSE 18:36:24 28° E 18:39:52 10° NNE
CSL-04 Debris 4.2 18:31:28 10° SSE 18:36:44 59° ENE 18:42:03 10° N
COSMOS 2406 3.3 18:31:22 10° NNW 18:37:00 60° ENE 18:42:37 10° SE
YAOGAN 1 2.5 18:37:07 10° SSE 18:41:26 85° ENE 18:45:47 10° NNW
Lacrosse 4 Rocket 2.1 18:38:40 10° NNW 18:42:26 34° NE 18:45:15 16° ESE
Lacrosse 5 rocket 2.5 18:39:53 10° NW 18:43:54 33° NNE 18:46:58 16° E
Cosmos 1674 2.7 18:40:23 10° N 18:44:15 86° W 18:48:03 10° S
CZ-4C R/B 2.9 18:43:38 10° S 18:47:42 27° ESE 18:52:22 10° ENE
Exosat Rocket 3.6 18:44:55 10° SSW 18:50:06 81° WNW 18:55:14 10° NNE
Cosmos 1536 Rocket 4.4 18:45:54 10° NNW 18:50:17 55° W 18:54:39 10° S
Helios 1A Rocket 4.4 18:48:24 10° S 18:52:17 40° W 18:56:14 10° NNW
Shenzhou-11 Module 2.6 18:52:21 10° WSW 18:54:00 22° S 18:54:23 21° S
CZ-4 R/B 2.1 18:50:25 10° S 18:54:31 57° W 18:58:36 10° NNW
Meteor 1-15 Rocket 4.4 18:50:13 10° SSW 18:55:55 81° W 19:01:46 10° N
OE (NEXTSAT) 4.3 18:53:56 10° WSW 18:57:24 73° SSE 18:59:13 26° E
Cosmos 1892 Rocket 4.1 18:54:31 10° N 18:58:35 37° ENE 19:01:33 17° SE
ARGOS 3.2 18:53:26 10° SSE 18:58:41 57° ENE 19:03:58 10° N
Meteor 1-24 Rocket 3.8 18:55:40 10° N 19:01:20 65° ENE 19:07:11 10° SSE
APEX 3.8 18:59:12 10° SSE 19:02:04 29° ESE 19:03:28 22° ENE
CZ-2C R/B 3.4 18:57:41 10° NNE 19:02:41 32° E 19:07:38 10° SSE
MOS 1 Rocket 3.0 18:58:27 10° NNE 19:02:42 58° E 19:06:56 10° S
Cosmos 2034 Rocket 4.5 18:57:51 10° SSW 19:04:08 66° W 19:10:26 10° N
USA 186 2.6 19:04:00 29° E 19:04:22 30° ENE 19:07:18 10° N
Cosmos 1626 2.0 19:00:47 10° N 19:04:29 67° E 19:08:09 10° SSE
Meteor 1-22 Rocket 4.3 19:00:40 10° S 19:06:35 66° E 19:12:39 10° NNE
CENTAUR R/B 4.3 18:59:31 10° NW 19:07:10 44° WSW 19:15:21 10° S
Aureole 2 Rocket 2.4 19:04:34 10° SSW 19:07:51 72° WNW 19:11:06 10° NNE
Cosmos 1470 3.4 19:08:01 28° ESE 19:08:54 31° E 19:12:21 10° NNE
Ariane Rocket 3.4 19:06:14 19° SE 19:09:23 41° ENE 19:14:11 10° N
Resurs 01 Rocket 3.6 19:10:01 14° NE 19:10:01 14° NE 19:11:51 10° NNE
SL-14 R/B 3.2 19:06:35 10° N 19:10:33 70° E 19:14:30 10° SSE
Cosmos 1766 3.5 19:07:16 10° SSW 19:11:12 74° W 19:15:12 10° N
NOSS 3-4 (A) 3.9 19:08:07 10° SW 19:13:58 60° NW 19:20:17 10° NE
NOSS 3-4 (C) 3.9 19:08:13 10° SW 19:14:03 60° NW 19:20:23 10° NE
USA 116 4.3 19:10:04 10° N 19:14:04 67° WNW 19:18:35 10° SSW
SL-8 R/B 4.0 19:10:34 10° SW 19:15:10 47° SSE 19:17:03 30° E
Cosmos 1733 3.4 19:12:53 10° SSW 19:16:42 70° W 19:20:31 10° N
Cosmos 2098 Rocket 4.3 19:12:47 10° N 19:18:08 32° ENE 19:19:21 29° E
Milstar 3 Cent rocket 4.3 19:15:45 10° SW 19:21:49 19° SSW 19:25:28 12° SSE
RESURS DK-1 2.2 19:18:50 10° SSW 19:22:57 74° ESE 19:27:07 10° NNE
Meteor 2-5 Rocket 4.1 19:17:48 10° NNW 19:23:31 67° W 19:29:18 10° S
Cosmos 1634 Rocket 3.9 19:19:37 10° S 19:25:49 86° E 19:32:05 10° N
ATLAS 3B R/B 2.8 19:19:10 10° NW 19:26:03 78° SW 19:31:52 16° SSE
SL-08 RB Rocket 3.6 19:23:00 20° SSE 19:26:03 71° ENE 19:30:33 10° N
Cosmos 2026 Rocket 4.2 19:28:57 10° NNW 19:35:21 77° W 19:41:41 10° S
Cosmos 1461 3.7 19:31:28 10° NNW 19:36:01 42° NE 19:36:43 39° ENE
ATLAS 2AS CENTAUR R/B 3.6 19:28:42 10° WSW 19:36:32 58° NW 19:44:16 10° NE
Cosmos 2082 Rocket 2.1 19:31:15 10° NNW 19:36:54 76° ENE 19:39:28 34° SE
Meteor 2-10 4.3 19:35:05 32° SE 19:36:58 44° E 19:41:58 10° NNE
Cosmos 1626 Rocket 4.3 19:40:43 10° N 19:44:08 37° NE 19:44:08 37° NE
H-2A R/B 3.2 19:41:46 10° S 19:46:34 43° W 19:51:33 10° NNW
COSMOS 2455 2.7 19:40:43 10° SSW 19:46:42 76° ESE 19:52:46 10° NE
Cosmos 1455 Rocket 2.9 19:43:02 10° S 19:47:24 85° E 19:51:47 10° N
SJ-6B 2.6 19:50:51 83° NNE 19:50:51 83° NNE 19:54:36 10° NNW
IRS-1A Rocket 4.3 19:48:52 23° SSE 19:52:39 87° WSW 19:58:28 10° NNW
OBJECT-B 3.0 19:55:53 19° N 19:55:53 19° N 19:56:56 10° N
Cosmos 2279 Rocket 3.9 19:48:14 10° S 19:54:30 89° E 20:00:49 10° N
ISS -2.9 19:51:32 10° WNW 19:54:07 49° NW 19:54:07 49° NW
Meteor 1-21 Rocket 4.3 19:51:38 10° N 19:57:25 59° ENE 19:58:18 53° ESE
DMSP B5D2-2 3.9 19:54:40 10° NNE 19:59:59 79° ESE 20:05:16 10° S
Meteor 2-19 Rocket 4.3 19:54:02 10° N 20:00:10 90° W 20:03:16 31° S
Cosmos 1655 Rocket 3.9 19:55:46 10° N 20:02:06 75° E 20:04:14 44° SSE
Cosmos 2180 Rocket 4.4 19:59:39 10° S 20:05:58 86° E 20:12:23 10° N
Cosmos 2278 Rocket 3.1 20:01:01 10° SW 20:06:28 48° WNW 20:11:57 10° NNE
ATLAS CENTAUR R/B 3.9 20:05:24 10° N 20:05:28 10° NNE 20:05:28 10° NNE
Gbstr 26 Del rocket 4.3 20:02:11 10° WSW 20:09:06 85° NNW 20:13:01 33° ENE
Cosmos 909 Rocket 4.0 20:02:43 10° NW 20:09:08 80° WSW 20:10:59 49° SSE
Cosmos 1833 Rocket 4.1 20:09:19 10° NW 20:14:20 34° WSW 20:18:21 15° SSW
Okean 1-7 Rocket 4.4 20:09:56 10° NNW 20:14:20 49° W 20:15:39 37° SW
Cosmos 2251 Rocket 4.0 20:09:21 10° NNW 20:14:35 58° WSW 20:16:09 41° SSW
Lacrosse 4 Rocket 3.1 20:17:32 10° NW 20:20:59 26° WSW 20:21:36 25° SW
Lacrosse 5 rocket 2.2 20:18:55 10° NW 20:22:36 54° W 20:22:36 54° W
CZ-4C R/B 2.8 20:30:45 10° WSW 20:35:43 54° NW 20:41:42 10° NE
SPOT 3 Rocket 3.8 20:38:02 65° NW 20:38:02 65° NW 20:42:36 10° NNW
Cosmos 2266 Rocket 3.9 20:34:30 10° NNW 20:40:33 75° W 20:40:53 72° SW
Terra 4.4 20:45:21 11° NNE 20:45:21 11° NNE 20:45:32 10° NNE
CZ-2C R/B 3.9 20:37:47 10° N 20:43:03 42° WNW 20:48:17 10° SW
Cosmos 1140 Rocket 4.4 20:38:20 10° NNW 20:41:42 40° N 20:41:42 40° N
Resurs 01 Rocket 3.3 20:47:36 30° NNW 20:47:36 30° NNW 20:49:56 10° NNW
Cosmos 2082 Rocket 4.4 21:16:44 10° WNW 21:20:18 17° W 21:21:20 17° WSW
